星链-5892 (STARLINK-5892 )

导读 | 星芒AI

STARLINK-5892 是 SpaceX 星链计划中的一颗低轨通信卫星,属于第 5 批星链卫星群。该卫星于 2021 年 10 月 31 日通过猎鹰 9 号火箭发射升空,运行在约 550 公里的轨道高度,旨在为全球提供高速互联网服务。作为星链网络的一部分,STARLINK-5892 采用先进通信技术,支持低延迟、高带宽的数据传输,助力偏远地区实现网络覆盖。

基本信息
目录编号:
55954
目录名称:
STARLINK-5892
国际标识:
2023-037AS
轨道中心:
EARTH
卫星名称:
星链-5892
卫星全名:
星链-5892 (STARLINK-5892 )
卫星状态:
在轨 (已飞行1010 天)
发射日期:
2023-03-17 UTC
国别 :
美国 (US)
星等 :
--
轨道信息
数据来源 国际轨道数据 AOE轨道数据
星历时间 2025-12-21T08:56:15+0800
15小时前
查看轨道信息
2025-12-18T07:00:00+0800
3天前
查看轨道信息
半长轴 6950.192km 6950.144km
偏心率 0.0003261 0.0003168
轨道倾角 69.999° 70.000°
近地点辐角 270.107° 274.777°
升交点赤经 102.700° 110.466°
平近点角 89.972° 32.607°
近地点 569.788km 569.807km
远地点 574.322km 574.211km
周期 96.107分钟 96.106分钟
每日圈数 14.983306 14.983459
详细信息
固有亮度:
5
最大亮度:
2.5
卫星平台:
Starlink v1.5
覆盖范围:
全球
运营商:
太空探索技术公司
运营商所在国:
美国
制造商(研发单位):
太空探索技术公司
制造商所在国:
美国
使用方式:
暂无
卫星简介
星链(Starlink)计划是由太空探索技术公司(SpaceX)提出的一个巨型低轨卫星互联网星座项目,计划在2019年至2024年间在太空搭建由约1.2万颗卫星组成的“星链”网络,其中1584颗将部署在地球上空550千米处的近地轨道,并从2020年开始工作。该卫星仍在工作。
2D轨道图
3D轨道图
轨道高度分析图
轨道倾角分析图
轨道综合分析图
查看轨道综合分析图